• In Uzbekistan
  • List of Countries
  • For 7 days
  • Water Temperature
  • Weather Map
  • Weather Widgets
  • user-avatar
    Login

    Hourly Weather Elbasan

    Today, 28 January, Tuesday

    Time Temperature Precipitation Wind Pressure Humidity
    00:00 +9°C° 0.1 mm 1 mps 736 mmHg 95%
    01:00 +9°C° 0 mm 1 mps 736 mmHg 95%
    02:00 +9°C° 0.2 mm 1 mps 736 mmHg 94%
    03:00 +8°C° 0.2 mm 1 mps 736 mmHg 93%
    04:00 +8°C° 0.2 mm 1 mps 736 mmHg 93%
    05:00 +8°C° 0.1 mm 1 mps 736 mmHg 92%
    06:00 +8°C° 0.1 mm 1 mps 736 mmHg 92%
    07:00 +8°C° 0.1 mm 1 mps 736 mmHg 91%
    08:00 +9°C° 0.1 mm 1 mps 736 mmHg 88%
    09:00 +9°C° 0.1 mm 1 mps 736 mmHg 86%
    10:00 +9°C° 0.1 mm 2 mps 736 mmHg 84%
    11:00 +10°C° 0 mm 2 mps 736 mmHg 80%
    12:00 +10°C° 0 mm 2 mps 735 mmHg 76%
    13:00 +12°C° 0 mm 2 mps 735 mmHg 72%
    14:00 +12°C° 0 mm 2 mps 734 mmHg 75%
    15:00 +12°C° 0 mm 2 mps 734 mmHg 78%
    16:00 +10°C° 0 mm 2 mps 734 mmHg 81%
    17:00 +11°C° 0 mm 1 mps 734 mmHg 83%
    18:00 +10°C° 0 mm 1 mps 734 mmHg 86%
    19:00 +9°C° 0 mm 1 mps 734 mmHg 88%
    20:00 +9°C° 0 mm 1 mps 734 mmHg 87%
    21:00 +9°C° 0 mm 2 mps 734 mmHg 86%
    22:00 +9°C° 0 mm 2 mps 733 mmHg 85%
    23:00 +9°C° 0 mm 2 mps 733 mmHg 84%

    Tomorrow, 29 January, Wednesday

    Time Temperature Precipitation Wind Pressure Humidity
    00:00 +8°C° 0 mm 2 mps 733 mmHg 84%
    01:00 +8°C° 0 mm 2 mps 733 mmHg 83%
    02:00 +8°C° 0 mm 2 mps 732 mmHg 82%
    03:00 +9°C° 0 mm 2 mps 732 mmHg 82%
    04:00 +9°C° 0 mm 2 mps 731 mmHg 81%
    05:00 +9°C° 0.2 mm 2 mps 731 mmHg 82%
    06:00 +9°C° 0.2 mm 2 mps 731 mmHg 84%
    07:00 +9°C° 0.2 mm 2 mps 731 mmHg 85%
    08:00 +10°C° 0.4 mm 3 mps 731 mmHg 85%
    09:00 +10°C° 0.4 mm 4 mps 731 mmHg 84%
    10:00 +11°C° 0.4 mm 4 mps 732 mmHg 83%
    11:00 +11°C° 0.4 mm 4 mps 731 mmHg 81%
    12:00 +12°C° 0.4 mm 4 mps 731 mmHg 79%
    13:00 +12°C° 0.4 mm 4 mps 731 mmHg 78%
    14:00 +11°C° 0.5 mm 3 mps 731 mmHg 80%
    15:00 +11°C° 0.5 mm 3 mps 731 mmHg 82%
    16:00 +10°C° 0.5 mm 2 mps 731 mmHg 84%
    17:00 +10°C° 0.4 mm 2 mps 731 mmHg 85%
    18:00 +9°C° 0.4 mm 2 mps 732 mmHg 86%
    19:00 +10°C° 0.4 mm 1 mps 732 mmHg 87%
    20:00 +10°C° 0.2 mm 1 mps 732 mmHg 87%
    21:00 +10°C° 0.2 mm 1 mps 733 mmHg 87%
    22:00 +10°C° 0.2 mm 1 mps 733 mmHg 88%
    23:00 +9°C° 0.2 mm 1 mps 733 mmHg 89%

    Day after tomorrow, 30 January, Thursday

    Time Temperature Precipitation Wind Pressure Humidity
    00:00 +9°C° 0.2 mm 1 mps 733 mmHg 90%
    01:00 +9°C° 0.2 mm 1 mps 733 mmHg 91%
    02:00 +9°C° 0.2 mm 1 mps 733 mmHg 91%
    03:00 +8°C° 0.2 mm 1 mps 734 mmHg 91%
    04:00 +8°C° 0.2 mm 1 mps 734 mmHg 92%
    05:00 +8°C° 0.1 mm 1 mps 734 mmHg 92%
    06:00 +8°C° 0.1 mm 1 mps 735 mmHg 92%
    07:00 +7°C° 0.1 mm 1 mps 736 mmHg 93%
    08:00 +8°C° 0.1 mm 1 mps 736 mmHg 88%
    09:00 +9°C° 0.1 mm 1 mps 737 mmHg 83%
    10:00 +11°C° 0.1 mm 1 mps 738 mmHg 79%
    11:00 +11°C° 0 mm 1 mps 738 mmHg 72%
    12:00 +12°C° 0 mm 2 mps 738 mmHg 66%
    13:00 +12°C° 0 mm 2 mps 738 mmHg 59%
    14:00 +12°C° 0 mm 2 mps 738 mmHg 61%
    15:00 +12°C° 0 mm 2 mps 738 mmHg 63%
    16:00 +10°C° 0 mm 2 mps 738 mmHg 64%
    17:00 +10°C° 0 mm 1 mps 738 mmHg 69%
    18:00 +9°C° 0 mm 1 mps 738 mmHg 74%
    19:00 +7°C° 0 mm 0 mps 738 mmHg 79%
    20:00 +7°C° 0 mm 1 mps 738 mmHg 79%
    21:00 +7°C° 0 mm 1 mps 738 mmHg 79%
    22:00 +7°C° 0 mm 1 mps 738 mmHg 79%
    23:00 +7°C° 0 mm 1 mps 738 mmHg 73%

    31 January, Friday

    Time Temperature Precipitation Wind Pressure Humidity
    00:00 +7°C° 0 mm 1 mps 738 mmHg 67%
    01:00 +7°C° 0 mm 1 mps 738 mmHg 60%
    02:00 +7°C° 0 mm 1 mps 738 mmHg 56%
    03:00 +7°C° 0 mm 1 mps 738 mmHg 52%
    04:00 +7°C° 0 mm 1 mps 737 mmHg 48%
    05:00 +6°C° 0 mm 1 mps 737 mmHg 48%
    06:00 +6°C° 0 mm 1 mps 737 mmHg 47%
    07:00 +6°C° 0 mm 1 mps 738 mmHg 47%
    08:00 +8°C° 0 mm 1 mps 738 mmHg 45%
    09:00 +10°C° 0 mm 1 mps 738 mmHg 43%
    10:00 +12°C° 0 mm 1 mps 738 mmHg 41%
    11:00 +12°C° 0 mm 1 mps 738 mmHg 47%
    12:00 +13°C° 0 mm 1 mps 737 mmHg 53%
    13:00 +13°C° 0 mm 2 mps 737 mmHg 59%
    14:00 +13°C° 0 mm 1 mps 737 mmHg 63%
    15:00 +12°C° 0 mm 1 mps 737 mmHg 68%
    16:00 +12°C° 0 mm 1 mps 737 mmHg 73%
    17:00 +11°C° 0 mm 1 mps 737 mmHg 76%
    18:00 +10°C° 0 mm 1 mps 737 mmHg 80%
    19:00 +9°C° 0 mm 1 mps 737 mmHg 83%
    20:00 +9°C° 0 mm 1 mps 737 mmHg 83%
    21:00 +9°C° 0 mm 1 mps 737 mmHg 84%
    22:00 +9°C° 0 mm 1 mps 737 mmHg 84%
    23:00 +8°C° 0 mm 1 mps 737 mmHg 84%

    1 February, Saturday

    Time Temperature Precipitation Wind Pressure Humidity
    00:00 +8°C° 0 mm 1 mps 737 mmHg 85%
    01:00 +8°C° 0 mm 1 mps 737 mmHg 85%
    02:00 +8°C° 0 mm 1 mps 737 mmHg 85%
    03:00 +8°C° 0 mm 1 mps 737 mmHg 84%
    04:00 +8°C° 0 mm 1 mps 737 mmHg 84%
    05:00 +8°C° 0 mm 1 mps 737 mmHg 84%
    06:00 +7°C° 0 mm 1 mps 737 mmHg 84%
    07:00 +7°C° 0 mm 1 mps 737 mmHg 83%
    08:00 +9°C° 0 mm 1 mps 737 mmHg 78%
    09:00 +11°C° 0 mm 1 mps 737 mmHg 73%
    10:00 +11°C° 0 mm 0 mps 737 mmHg 68%
    11:00 +13°C° 0 mm 1 mps 737 mmHg 67%
    12:00 +14°C° 0 mm 1 mps 736 mmHg 66%
    13:00 +14°C° 0 mm 1 mps 736 mmHg 65%
    14:00 +14°C° 0 mm 1 mps 736 mmHg 68%
    15:00 +14°C° 0 mm 1 mps 736 mmHg 71%
    16:00 +13°C° 0 mm 1 mps 736 mmHg 75%
    17:00 +12°C° 0 mm 1 mps 736 mmHg 79%
    18:00 +10°C° 0 mm 0 mps 736 mmHg 83%
    19:00 +9°C° 0 mm 0 mps 736 mmHg 86%
    20:00 +9°C° 0 mm 0 mps 736 mmHg 87%
    21:00 +8°C° 0 mm 0 mps 736 mmHg 87%
    22:00 +8°C° 0 mm 0 mps 736 mmHg 87%
    23:00 +8°C° 0 mm 0 mps 736 mmHg 87%

    2 February, Sunday

    Time Temperature Precipitation Wind Pressure Humidity
    00:00 +9°C° 0 mm 1 mps 736 mmHg 86%
    01:00 +9°C° 0 mm 1 mps 736 mmHg 86%
    02:00 +9°C° 0 mm 1 mps 736 mmHg 86%
    03:00 +8°C° 0 mm 0 mps 736 mmHg 85%
    04:00 +8°C° 0 mm 0 mps 736 mmHg 85%
    05:00 +8°C° 0 mm 0 mps 736 mmHg 85%
    06:00 +8°C° 0 mm 0 mps 736 mmHg 85%
    07:00 +8°C° 0 mm 0 mps 736 mmHg 85%
    08:00 +10°C° 0 mm 1 mps 737 mmHg 84%
    09:00 +10°C° 0 mm 1 mps 737 mmHg 82%
    10:00 +11°C° 0 mm 1 mps 738 mmHg 80%
    11:00 +12°C° 0.1 mm 1 mps 738 mmHg 79%
    12:00 +12°C° 0.1 mm 1 mps 738 mmHg 78%
    13:00 +12°C° 0.1 mm 1 mps 738 mmHg 77%
    14:00 +13°C° 0 mm 1 mps 738 mmHg 76%
    15:00 +13°C° 0 mm 1 mps 738 mmHg 75%
    16:00 +13°C° 0 mm 1 mps 738 mmHg 74%
    17:00 +12°C° 0 mm 1 mps 739 mmHg 77%
    18:00 +11°C° 0 mm 1 mps 739 mmHg 79%
    19:00 +9°C° 0 mm 1 mps 739 mmHg 82%
    20:00 +9°C° 0 mm 1 mps 740 mmHg 77%
    21:00 +9°C° 0 mm 1 mps 740 mmHg 73%
    22:00 +8°C° 0 mm 2 mps 740 mmHg 68%
    23:00 +9°C° 0 mm 1 mps 740 mmHg 63%
    Show more